STARLINK-5758 (56037 NORAD) Tracking and Keplerian Element Data

This shows tracking and keplerian element data for the satellite.

Feedback or suggestion? Click here.




ElementValue
Catalog56037
NameSTARLINK-5758
Epoch Orbit130
Epoch Day124.83334491
Epoch Year2023
RAAN305.6228
Inclination42.9995
Eccentricity0.0002427
Argument of Perigee251.9849
Mean Anonmoly199.8025
Mean Motion15.71315237
Decay Rate0.00089766
L11 56037U 23042BD 23124.83334491 .00089766 00000+0 68173-3 0 9992
L22 56037 42.9995 305.6228 0002427 251.9849 199.8025 15.71315237 1303



Live tracking and technical data element details for STARLINK-5758 (NORAD 56037). STARLINK-5758 can be tracked NOW for your location showing map with azimuth and elevation plus other details from your city location.







IsCatalogInMostPopularTable: catalog: 56037, numindb: -1

Insert: records affected: 1


GetName: 56037 STARLINK-5758

Hit Count: inserted at: Sat, 03 Jun 2023 17:48:20 GMT